Вернуться в каталог

COSMOS 1275 DEB

АктивенPO
NORAD 13799·DEBRIS·🇷🇺 Russia

Запущен Jun 4, 1981 с Plesetsk Cosmodrome

Loading…

Ближайшие Пролёты (ближайшие 24 часа)

TLE

СвежийSource: Space-Track

Эпоха: Sep 14, 2026, 10:24 UTC

1 13799U 81053GT  26257.43399469  .00000677  00000-0  62182-3 0  9997
2 13799  83.1307 286.1439 0087013 231.9683 194.5168 13.79875524196312

Отслеживайте COSMOS 1275 DEB в реальном времени с AllMySat

Download on the App Store